| time (UTC) | temp F | wind direction | speed MPH | gust MPH | rain 1hr in | rain 24hr in | rain mn in | humidity % | barometer mb |
| 20260503222026 | 76 | 267 | 0.0 | 0.0 | 0.00 | 0.00 | 0.00 | 78 | 997.0 |
| 20260503221226 | 76 | 267 | 0.0 | 0.0 | 0.00 | 0.00 | 0.00 | 79 | 997.1 |
| 20260503220426 | 76 | 267 | 0.0 | 0.0 | 0.00 | 0.00 | 0.00 | 78 | 997.2 |
| 20260503215626 | 76 | 267 | 0.0 | 0.0 | 0.00 | 0.00 | 0.00 | 79 | 996.8 |
| 20260503214825 | 76 | 267 | 0.0 | 0.0 | 0.00 | 0.00 | 0.00 | 78 | 996.7 |
| 20260503214025 | 76 | 267 | 0.0 | 0.0 | 0.00 | 0.00 | 0.00 | 78 | 996.1 |
| 20260503213225 | 76 | 267 | 0.0 | 0.0 | 0.00 | 0.00 | 0.00 | 79 | 995.8 |
| 20260503212425 | 76 | 267 | 0.0 | 0.0 | 0.00 | 0.00 | 0.00 | 78 | 995.7 |
| 20260503211624 | 76 | 267 | 0.0 | 0.0 | 0.00 | 0.00 | 0.00 | 78 | 995.7 |
| 20260503210824 | 76 | 267 | 0.0 | 0.0 | 0.00 | 0.00 | 0.00 | 78 | 996.2 |
| 20260503210024 | 76 | 267 | 0.0 | 0.0 | 0.00 | 0.00 | 0.00 | 78 | 996.0 |
| 20260503205224 | 76 | 267 | 0.0 | 0.0 | 0.00 | 0.00 | 0.00 | 77 | 995.7 |
| 20260503204424 | 76 | 267 | 0.0 | 0.0 | 0.00 | 0.00 | 0.00 | 78 | 995.8 |
| 20260503203623 | 76 | 267 | 0.0 | 0.0 | 0.00 | 0.00 | 0.00 | 78 | 995.8 |
| 20260503202823 | 75 | 267 | 0.0 | 0.0 | 0.00 | 0.00 | 0.00 | 78 | 995.7 |
| 20260503202023 | 75 | 267 | 0.0 | 0.0 | 0.00 | 0.00 | 0.00 | 78 | 995.6 |
| 20260503201223 | 76 | 267 | 0.0 | 0.0 | 0.00 | 0.00 | 0.00 | 76 | 996.1 |
| 20260503200422 | 76 | 267 | 0.0 | 0.0 | 0.00 | 0.00 | 0.00 | 76 | 996.4 |
| 20260503195622 | 76 | 267 | 0.0 | 0.0 | 0.00 | 0.00 | 0.00 | 77 | 996.6 |
| 20260503194822 | 76 | 267 | 0.0 | 0.0 | 0.00 | 0.00 | 0.00 | 76 | 996.9 |
| 20260503194022 | 76 | 267 | 0.0 | 0.0 | 0.00 | 0.00 | 0.00 | 77 | 996.8 |
| 20260503193222 | 75 | 267 | 0.0 | 0.0 | 0.00 | 0.00 | 0.00 | 76 | 996.9 |
| 20260503192421 | 76 | 267 | 0.0 | 0.0 | 0.00 | 0.00 | 0.00 | 78 | 996.8 |
| 20260503191621 | 76 | 267 | 0.0 | 0.0 | 0.00 | 0.00 | 0.00 | 77 | 997.0 |
| 20260503190821 | 75 | 267 | 0.0 | 0.0 | 0.00 | 0.00 | 0.00 | 75 | 997.1 |
| 20260503190021 | 75 | 267 | 0.0 | 0.0 | 0.00 | 0.00 | 0.00 | 77 | 997.6 |
| 20260503185221 | 76 | 267 | 0.0 | 0.0 | 0.00 | 0.00 | 0.00 | 77 | 998.0 |
| 20260503184420 | 75 | 267 | 0.0 | 0.0 | 0.00 | 0.00 | 0.00 | 77 | 998.3 |
| 20260503183620 | 76 | 267 | 0.0 | 0.0 | 0.00 | 0.00 | 0.00 | 77 | 998.5 |
| 20260503182820 | 76 | 267 | 0.0 | 0.0 | 0.00 | 0.00 | 0.00 | 77 | 999.0 |
| 20260503182020 | 76 | 267 | 0.0 | 0.0 | 0.00 | 0.00 | 0.00 | 77 | 999.1 |
| 20260503181219 | 76 | 267 | 0.0 | 0.0 | 0.00 | 0.00 | 0.00 | 77 | 999.1 |
| 20260503180419 | 76 | 267 | 0.0 | 0.0 | 0.00 | 0.00 | 0.00 | 77 | 999.4 |
| 20260503175619 | 76 | 267 | 0.0 | 0.0 | 0.00 | 0.00 | 0.00 | 76 | 999.5 |
| 20260503174819 | 76 | 267 | 0.0 | 0.0 | 0.00 | 0.00 | 0.00 | 77 | 999.5 |
| 20260503174019 | 76 | 267 | 0.0 | 0.0 | 0.00 | 0.00 | 0.00 | 77 | 999.7 |
| 20260503173218 | 76 | 267 | 0.0 | 0.0 | 0.00 | 0.00 | 0.00 | 78 | 1000.0 |
| 20260503172418 | 76 | 267 | 0.0 | 0.0 | 0.00 | 0.00 | 0.00 | 77 | 1000.4 |
| 20260503171618 | 76 | 267 | 0.0 | 0.0 | 0.00 | 0.00 | 0.00 | 78 | 1000.8 |
| 20260503170818 | 76 | 267 | 0.0 | 0.0 | 0.00 | 0.00 | 0.00 | 77 | 1000.7 |
| 20260503150814 | 76 | 267 | 0.0 | 0.0 | 0.00 | 0.00 | 0.00 | 81 | 1003.0 |
| 20260503130811 | 76 | 267 | 0.0 | 0.0 | 0.00 | 0.00 | 0.00 | 73 | 1005.1 |
| 20260503110808 | 76 | 267 | 0.0 | 0.0 | 0.00 | 0.00 | 0.00 | 71 | 1005.7 |
| 20260503081203 | 76 | 267 | 0.0 | 0.0 | 0.00 | 0.00 | 0.00 | 70 | 1005.0 |
| 20260503080403 | 76 | 267 | 0.0 | 0.0 | 0.00 | 0.00 | 0.00 | 69 | 1005.4 |
| 20260503072402 | 75 | 267 | 0.0 | 0.0 | 0.00 | 0.00 | 0.00 | 70 | 1005.0 |
| 20260503071601 | 75 | 267 | 0.0 | 0.0 | 0.00 | 0.00 | 0.00 | 71 | 1004.9 |
| 20260503070801 | 75 | 267 | 0.0 | 0.0 | 0.00 | 0.00 | 0.00 | 71 | 1005.1 |
| 20260503054759 | 75 | 267 | 0.0 | 0.0 | 0.00 | 0.00 | 0.00 | 69 | 1006.2 |
| 20260503053959 | 75 | 267 | 0.0 | 0.0 | 0.00 | 0.00 | 0.00 | 69 | 1006.5 |
| 20260503053159 | 75 | 267 | 0.0 | 0.0 | 0.00 | 0.00 | 0.00 | 69 | 1006.5 |
| 20260503052358 | 75 | 267 | 0.0 | 0.0 | 0.00 | 0.00 | 0.00 | 68 | 1006.7 |
| 20260503051558 | 75 | 267 | 0.0 | 0.0 | 0.00 | 0.00 | 0.00 | 68 | 1007.0 |
| 20260503050758 | 75 | 267 | 0.0 | 0.0 | 0.00 | 0.00 | 0.00 | 69 | 1007.0 |
| 20260503045958 | 75 | 267 | 0.0 | 0.0 | 0.00 | 0.00 | 0.00 | 68 | 1007.4 |
| 20260503045157 | 75 | 267 | 0.0 | 0.0 | 0.00 | 0.00 | 0.00 | 69 | 1007.5 |
| 20260503044357 | 75 | 267 | 0.0 | 0.0 | 0.00 | 0.00 | 0.00 | 69 | 1007.8 |
| 20260503043557 | 75 | 267 | 0.0 | 0.0 | 0.00 | 0.00 | 0.00 | 68 | 1007.7 |
| 20260503042757 | 75 | 267 | 0.0 | 0.0 | 0.00 | 0.00 | 0.00 | 68 | 1008.0 |
| 20260503041957 | 75 | 267 | 0.0 | 0.0 | 0.00 | 0.00 | 0.00 | 69 | 1008.1 |
| 20260503041156 | 75 | 267 | 0.0 | 0.0 | 0.00 | 0.00 | 0.00 | 69 | 1008.4 |
| 20260503040356 | 74 | 267 | 0.0 | 0.0 | 0.00 | 0.00 | 0.00 | 68 | 1008.4 |
| 20260503035556 | 75 | 267 | 0.0 | 0.0 | 0.00 | 0.00 | 0.00 | 69 | 1008.9 |
| 20260503034756 | 74 | 267 | 0.0 | 0.0 | 0.00 | 0.00 | 0.00 | 70 | 1008.7 |
| 20260503033956 | 75 | 267 | 0.0 | 0.0 | 0.00 | 0.00 | 0.00 | 70 | 1009.2 |
| 20260503033155 | 74 | 267 | 0.0 | 0.0 | 0.00 | 0.00 | 0.00 | 69 | 1009.3 |
| 20260503032355 | 74 | 267 | 0.0 | 0.0 | 0.00 | 0.00 | 0.00 | 70 | 1009.2 |
| 20260503031555 | 74 | 267 | 0.0 | 0.0 | 0.00 | 0.00 | 0.00 | 71 | 1009.6 |
| 20260503030755 | 74 | 267 | 0.0 | 0.0 | 0.00 | 0.00 | 0.00 | 72 | 1009.6 |
| 20260503025954 | 74 | 267 | 0.0 | 0.0 | 0.00 | 0.00 | 0.00 | 72 | 1009.8 |
| 20260503025154 | 74 | 267 | 0.0 | 0.0 | 0.00 | 0.00 | 0.00 | 72 | 1010.3 |
| 20260503024354 | 74 | 267 | 0.0 | 0.0 | 0.00 | 0.00 | 0.00 | 73 | 1010.3 |
| 20260503023554 | 74 | 267 | 0.0 | 0.0 | 0.00 | 0.00 | 0.00 | 71 | 1010.5 |
| 20260503022754 | 74 | 267 | 0.0 | 0.0 | 0.00 | 0.00 | 0.00 | 69 | 1010.6 |
| 20260503021953 | 74 | 267 | 0.0 | 0.0 | 0.00 | 0.00 | 0.00 | 66 | 1010.6 |
| 20260503021153 | 74 | 267 | 0.0 | 0.0 | 0.00 | 0.00 | 0.00 | 66 | 1010.9 |
| 20260503020353 | 74 | 267 | 0.0 | 0.0 | 0.00 | 0.00 | 0.00 | 67 | 1011.0 |
| 20260503015553 | 74 | 267 | 0.0 | 0.0 | 0.00 | 0.00 | 0.00 | 66 | 1011.4 |
| 20260503014752 | 74 | 267 | 0.0 | 0.0 | 0.00 | 0.00 | 0.00 | 68 | 1011.3 |
| 20260503013952 | 74 | 267 | 0.0 | 0.0 | 0.00 | 0.00 | 0.00 | 67 | 1011.5 |
| 20260503013152 | 74 | 267 | 0.0 | 0.0 | 0.00 | 0.00 | 0.00 | 68 | 1011.7 |
| 20260503012352 | 74 | 267 | 0.0 | 0.0 | 0.00 | 0.00 | 0.00 | 67 | 1011.8 |
| 20260503011552 | 74 | 267 | 0.0 | 0.0 | 0.00 | 0.00 | 0.00 | 68 | 1012.0 |
| 20260503010751 | 74 | 267 | 0.0 | 0.0 | 0.00 | 0.00 | 0.00 | 67 | 1012.1 |
| 20260503005951 | 74 | 267 | 0.0 | 0.0 | 0.00 | 0.00 | 0.00 | 67 | 1012.2 |
| 20260503005151 | 74 | 267 | 0.0 | 0.0 | 0.00 | 0.00 | 0.00 | 67 | 1012.4 |
| 20260503004351 | 74 | 267 | 0.0 | 0.0 | 0.00 | 0.00 | 0.00 | 67 | 1012.5 |
| 20260503003550 | 74 | 267 | 0.0 | 0.0 | 0.00 | 0.00 | 0.00 | 67 | 1012.3 |
| 20260503002750 | 74 | 267 | 0.0 | 0.0 | 0.00 | 0.00 | 0.00 | 68 | 1012.4 |
| 20260503001950 | 74 | 267 | 0.0 | 0.0 | 0.00 | 0.00 | 0.00 | 67 | 1012.3 |
| 20260503001150 | 74 | 267 | 0.0 | 0.0 | 0.00 | 0.00 | 0.00 | 66 | 1012.5 |
| 20260503000350 | 74 | 267 | 0.0 | 0.0 | 0.00 | 0.00 | 0.00 | 67 | 1012.7 |
| 20260502235549 | 74 | 267 | 0.0 | 0.0 | 0.00 | 0.00 | 0.00 | 67 | 1012.4 |
| 20260502234749 | 74 | 267 | 0.0 | 0.0 | 0.00 | 0.00 | 0.00 | 66 | 1012.8 |
| 20260502233949 | 74 | 267 | 0.0 | 0.0 | 0.00 | 0.00 | 0.00 | 67 | 1012.8 |
| 20260502233149 | 74 | 267 | 0.0 | 0.0 | 0.00 | 0.00 | 0.00 | 67 | 1012.8 |
| 20260502232348 | 74 | 267 | 0.0 | 0.0 | 0.00 | 0.00 | 0.00 | 67 | 1012.8 |
| 20260502231548 | 74 | 267 | 0.0 | 0.0 | 0.00 | 0.00 | 0.00 | 67 | 1012.7 |
| 20260502230748 | 74 | 267 | 0.0 | 0.0 | 0.00 | 0.00 | 0.00 | 66 | 1012.7 |
| 20260502225948 | 74 | 267 | 0.0 | 0.0 | 0.00 | 0.00 | 0.00 | 66 | 1012.9 |
| 20260502225148 | 74 | 267 | 0.0 | 0.0 | 0.00 | 0.00 | 0.00 | 66 | 1013.0 |
| 20260502224347 | 74 | 267 | 0.0 | 0.0 | 0.00 | 0.00 | 0.00 | 66 | 1013.1 |
| 20260502223547 | 74 | 267 | 0.0 | 0.0 | 0.00 | 0.00 | 0.00 | 67 | 1013.3 |
| 20260502222747 | 74 | 267 | 0.0 | 0.0 | 0.00 | 0.00 | 0.00 | 66 | 1013.2 |